Meteo pe oră la Czyze

Astăzi, 10 Aprilie, Sâmbătă

Timp Temperatura Precipitaţii Vânt Presiune Umiditate
00:00 +2°C° 0 mm 5 m/s 748 mmHg 64%
01:00 +2°C° 0 mm 5 m/s 748 mmHg 66%
02:00 +3°C° 0 mm 4 m/s 748 mmHg 68%
03:00 +3°C° 0 mm 4 m/s 747 mmHg 68%
04:00 +3°C° 0 mm 4 m/s 747 mmHg 68%
05:00 +3°C° 0 mm 4 m/s 747 mmHg 68%
06:00 +3°C° 0 mm 4 m/s 747 mmHg 67%
07:00 +4°C° 0 mm 4 m/s 747 mmHg 66%
08:00 +5°C° 0 mm 5 m/s 747 mmHg 65%
09:00 +7°C° 0 mm 5 m/s 747 mmHg 60%
10:00 +9°C° 0 mm 5 m/s 747 mmHg 55%
11:00 +12°C° 0 mm 5 m/s 747 mmHg 50%
12:00 +13°C° 0 mm 5 m/s 747 mmHg 48%
13:00 +14°C° 0 mm 6 m/s 747 mmHg 46%
14:00 +15°C° 0 mm 6 m/s 747 mmHg 44%
15:00 +15°C° 0 mm 5 m/s 747 mmHg 45%
16:00 +15°C° 0 mm 4 m/s 747 mmHg 47%
17:00 +15°C° 0 mm 4 m/s 747 mmHg 49%
18:00 +13°C° 0 mm 3 m/s 747 mmHg 54%
19:00 +13°C° 0 mm 2 m/s 748 mmHg 60%
20:00 +12°C° 0 mm 2 m/s 748 mmHg 66%
21:00 +10°C° 0 mm 2 m/s 748 mmHg 67%
22:00 +10°C° 0 mm 2 m/s 748 mmHg 69%
23:00 +10°C° 0 mm 2 m/s 749 mmHg 70%

Mâine, 11 Aprilie, Duminică

Timp Temperatura Precipitaţii Vânt Presiune Umiditate
00:00 +9°C° 0 mm 2 m/s 749 mmHg 72%
01:00 +9°C° 0 mm 2 m/s 749 mmHg 74%
02:00 +10°C° 0 mm 1 m/s 749 mmHg 76%
03:00 +10°C° 0 mm 1 m/s 750 mmHg 77%
04:00 +8°C° 0 mm 2 m/s 750 mmHg 78%
05:00 +8°C° 0 mm 2 m/s 750 mmHg 80%
06:00 +9°C° 0 mm 2 m/s 750 mmHg 77%
07:00 +9°C° 0 mm 2 m/s 751 mmHg 75%
08:00 +10°C° 0 mm 3 m/s 751 mmHg 72%
09:00 +12°C° 0 mm 4 m/s 751 mmHg 66%
10:00 +13°C° 0 mm 4 m/s 751 mmHg 59%
11:00 +15°C° 0 mm 5 m/s 751 mmHg 52%
12:00 +15°C° 0 mm 5 m/s 751 mmHg 48%
13:00 +16°C° 0 mm 6 m/s 751 mmHg 44%
14:00 +17°C° 0 mm 7 m/s 751 mmHg 41%
15:00 +17°C° 0 mm 6 m/s 751 mmHg 42%
16:00 +16°C° 0 mm 6 m/s 751 mmHg 44%
17:00 +16°C° 0 mm 6 m/s 750 mmHg 45%
18:00 +15°C° 0 mm 5 m/s 751 mmHg 48%
19:00 +14°C° 0 mm 5 m/s 751 mmHg 50%
20:00 +12°C° 0 mm 5 m/s 751 mmHg 53%
21:00 +12°C° 0 mm 5 m/s 751 mmHg 53%
22:00 +10°C° 0 mm 5 m/s 751 mmHg 53%
23:00 +10°C° 0 mm 6 m/s 751 mmHg 53%

Poimâine, 12 Aprilie, Luni

Timp Temperatura Precipitaţii Vânt Presiune Umiditate
00:00 +9°C° 0 mm 5 m/s 751 mmHg 54%
01:00 +9°C° 0 mm 5 m/s 751 mmHg 54%
02:00 +8°C° 0 mm 5 m/s 751 mmHg 55%
03:00 +8°C° 0 mm 5 m/s 750 mmHg 56%
04:00 +7°C° 0 mm 5 m/s 750 mmHg 58%
05:00 +6°C° 0 mm 4 m/s 750 mmHg 59%
06:00 +7°C° 0 mm 5 m/s 750 mmHg 60%
07:00 +7°C° 0 mm 5 m/s 750 mmHg 60%
08:00 +7°C° 0 mm 5 m/s 750 mmHg 60%
09:00 +8°C° 0 mm 5 m/s 750 mmHg 60%
10:00 +9°C° 0 mm 5 m/s 749 mmHg 60%
11:00 +9°C° 0 mm 5 m/s 749 mmHg 59%
12:00 +9°C° 0 mm 5 m/s 749 mmHg 60%
13:00 +9°C° 0 mm 5 m/s 749 mmHg 61%
14:00 +10°C° 0 mm 5 m/s 749 mmHg 62%
15:00 +11°C° 0 mm 4 m/s 749 mmHg 65%
16:00 +10°C° 0 mm 4 m/s 748 mmHg 68%
17:00 +10°C° 0 mm 3 m/s 748 mmHg 71%
18:00 +10°C° 0 mm 3 m/s 748 mmHg 73%
19:00 +10°C° 0 mm 3 m/s 748 mmHg 75%
20:00 +10°C° 0 mm 3 m/s 748 mmHg 76%
21:00 +10°C° 0 mm 2 m/s 748 mmHg 76%
22:00 +10°C° 0 mm 2 m/s 748 mmHg 77%
23:00 +9°C° 0 mm 2 m/s 748 mmHg 77%

13 Aprilie, Marţi

Timp Temperatura Precipitaţii Vânt Presiune Umiditate
00:00 +9°C° 0 mm 2 m/s 747 mmHg 78%
01:00 +10°C° 0 mm 1 m/s 747 mmHg 80%
02:00 +10°C° 0 mm 1 m/s 747 mmHg 81%
03:00 +10°C° 0 mm 1 m/s 747 mmHg 82%
04:00 +9°C° 0 mm 1 m/s 747 mmHg 83%
05:00 +9°C° 0 mm 1 m/s 747 mmHg 84%
06:00 +10°C° 0 mm 1 m/s 747 mmHg 83%
07:00 +9°C° 0 mm 2 m/s 747 mmHg 82%
08:00 +9°C° 0 mm 2 m/s 747 mmHg 81%
09:00 +10°C° 0 mm 2 m/s 747 mmHg 79%
10:00 +10°C° 0 mm 2 m/s 747 mmHg 78%
11:00 +12°C° 0 mm 2 m/s 748 mmHg 76%
12:00 +10°C° 0.1 mm 3 m/s 748 mmHg 78%
13:00 +9°C° 0.1 mm 3 m/s 748 mmHg 80%
14:00 +8°C° 0.1 mm 4 m/s 748 mmHg 82%
15:00 +6°C° 0.1 mm 4 m/s 748 mmHg 83%
16:00 +5°C° 0.1 mm 5 m/s 748 mmHg 83%
17:00 +3°C° 0.1 mm 6 m/s 748 mmHg 84%
18:00 +2°C° 0.5 mm 6 m/s 749 mmHg 86%
19:00 +2°C° 0.5 mm 6 m/s 749 mmHg 88%
20:00 +1°C° 0.5 mm 5 m/s 749 mmHg 91%
21:00 +1°C° 0.9 mm 5 m/s 749 mmHg 92%
22:00 0°C° 0.9 mm 5 m/s 749 mmHg 94%
23:00 0°C° 0.9 mm 5 m/s 749 mmHg 95%

14 Aprilie, Miercuri

Timp Temperatura Precipitaţii Vânt Presiune Umiditate
00:00 0°C° 0.8 mm 5 m/s 748 mmHg 96%
01:00 0°C° 0.8 mm 5 m/s 748 mmHg 96%
02:00 -1°C° 0.8 mm 5 m/s 748 mmHg 96%
03:00 -1°C° 1 mm 5 m/s 748 mmHg 97%
04:00 -1°C° 1 mm 5 m/s 747 mmHg 97%
05:00 -1°C° 1 mm 5 m/s 747 mmHg 97%
06:00 -1°C° 1.3 mm 5 m/s 747 mmHg 97%
07:00 -2°C° 1.3 mm 6 m/s 747 mmHg 97%
08:00 -2°C° 1.3 mm 6 m/s 747 mmHg 98%
09:00 -2°C° 1.1 mm 6 m/s 747 mmHg 98%
10:00 -2°C° 1.1 mm 6 m/s 747 mmHg 98%
11:00 -2°C° 1.1 mm 6 m/s 747 mmHg 98%
12:00 -2°C° 0.9 mm 7 m/s 747 mmHg 98%
13:00 -2°C° 0.9 mm 7 m/s 747 mmHg 98%
14:00 -2°C° 0.9 mm 7 m/s 747 mmHg 98%
15:00 -2°C° 1 mm 7 m/s 746 mmHg 98%
16:00 -2°C° 1 mm 7 m/s 746 mmHg 98%
17:00 -2°C° 1 mm 7 m/s 746 mmHg 98%
18:00 -2°C° 1.2 mm 7 m/s 746 mmHg 98%
19:00 -2°C° 1.2 mm 6 m/s 746 mmHg 98%
20:00 -2°C° 1.2 mm 6 m/s 746 mmHg 98%
21:00 -2°C° 0.6 mm 6 m/s 746 mmHg 98%
22:00 -2°C° 0.6 mm 6 m/s 746 mmHg 98%
23:00 -2°C° 0.6 mm 6 m/s 746 mmHg 98%

15 Aprilie, Joi

Timp Temperatura Precipitaţii Vânt Presiune Umiditate
00:00 -2°C° 0.1 mm 6 m/s 745 mmHg 98%
01:00 -2°C° 0.1 mm 6 m/s 745 mmHg 98%
02:00 -2°C° 0.1 mm 6 m/s 745 mmHg 98%
03:00 -2°C° 0.4 mm 6 m/s 745 mmHg 98%
04:00 -2°C° 0.4 mm 6 m/s 745 mmHg 98%
05:00 -2°C° 0.4 mm 6 m/s 745 mmHg 98%
06:00 -1°C° 0.6 mm 5 m/s 745 mmHg 98%
07:00 -1°C° 0.6 mm 5 m/s 745 mmHg 98%
08:00 -1°C° 0.6 mm 5 m/s 745 mmHg 98%
09:00 0°C° 0.1 mm 5 m/s 745 mmHg 98%
10:00 0°C° 0.1 mm 5 m/s 745 mmHg 98%
11:00 +1°C° 0.1 mm 4 m/s 746 mmHg 99%
12:00 +1°C° 0.1 mm 4 m/s 746 mmHg 98%
13:00 +1°C° 0.1 mm 4 m/s 746 mmHg 98%
14:00 +3°C° 0.1 mm 4 m/s 746 mmHg 98%
15:00 +2°C° 0.4 mm 5 m/s 746 mmHg 98%
16:00 +2°C° 0.4 mm 5 m/s 746 mmHg 98%
17:00 +3°C° 0.4 mm 5 m/s 746 mmHg 98%
18:00 +3°C° 0.6 mm 5 m/s 746 mmHg 98%
19:00 +3°C° 0.6 mm 6 m/s 746 mmHg 97%
20:00 +3°C° 0.6 mm 6 m/s 746 mmHg 96%
21:00 +3°C° 0.2 mm 6 m/s 747 mmHg 96%
22:00 +3°C° 0.2 mm 6 m/s 747 mmHg 95%
23:00 +3°C° 0.2 mm 7 m/s 747 mmHg 95%
Arată mai mult

Formular de consimțământ

Meteoprog și furnizorii noștri de servicii pot stoca și accesa date personale, precum cookies, identificatori de dispozitiv sau alte tehnologii similare pe dispozitivul dumneavoastră și procesa astfel de date pentru a personaliza conținutul și reclamele, dar și pentru a oferi caracteristici de social media și pentru a analiza traficul.

  • Stocarea și/sau accesarea informațiilor pe dispozitivul dumneavoastră

    Cookies, identificatori de dispozitiv sau alte informații pot fi stocate sau accesate pe dispozitiv în scopurile indicate mai sus.

  • Reclame și conținut personalizat, evaluarea reclamelor și a conținutului, informații despre audiențe și dezvoltarea produselor

    Reclamele și conținutul pot fi personalizate pe baza unui profil. Pot fi adăugate date suplimentare pentru a personaliza mai bine reclamele și conținutul. Performanța reclamelor și conținutului poate fi măsurată. Pot fi obținute informații despre utilizatorii care au văzut reclamele și conținutul. Aceste date pot fi utilizate pentru a dezvolta sau îmbunătăți experiența utilizatorilor, sistemele și software-ul.

Dând clic pe ‘Sunt de acord’, permiteți utilizarea cookie-urilor menționate, a identificatorilor de dispozitiv, balizelor web sau altor tehnologii similare. Setările pot fi modificate din browser-ul dispozitivului dumneavoastră.

În anumite scopuri, interesele legitime pot prima asupra consimțământului. Puteți citi mai multe informații în acest sens în Politica privind Confidențialitatea Datelor și Cookie.